QPF
0.00 0.00 0.00 0.00 0.00 0.00 0.00 0.00 0.00 0.00 0.00 0.00 0.00 0.00 0.00 0.00 0.00 0.00 0.00 0.00 0.00 0.00 0.00 0.00 0.00 0.00 0.01 0.01 0.02 0.01 0.01 0.01 0.00
0.00 0.00 0.00 0.00 0.00 0.00 0.00 0.00 0.00 0.00 0.00 0.00 0.00 0.00 0.00 0.00 0.00 0.00 0.00 0.00 0.00 0.00 0.00 0.00 0.00 0.00 0.00 0.00 0.01 0.02 0.01 0.01 0.00
0.00 0.00 0.00 0.00 0.00 0.00 0.00 0.00 0.00 0.00 0.00 0.00 0.00 0.00 0.00 0.00 0.00 0.00 0.00 0.00 0.00 0.00 0.00 0.00 0.00 0.00 0.00 0.00 0.00 0.00 0.00 0.00 0.00
0.00 0.00 0.00 0.00 0.00 0.00 0.00 0.00 0.00 0.00 0.00 0.00 0.00 0.00 0.00 0.00 0.00 0.00 0.00 0.00 0.00 0.00 0.00 0.00 0.00 0.00 0.00 0.00 0.00 0.00 0.00 0.00 0.00
0.00 0.00 0.00 0.00 0.00 0.00 0.00 0.00 0.00 0.00 0.00 0.00 0.00 0.00 0.00 0.00 0.00 0.00 0.00 0.00 0.00 0.00 0.00 0.00 0.00 0.00 0.00 0.00 0.00 0.00 0.00 0.00 0.00
0.00 0.00 0.00 0.00 0.00 0.00 0.00 0.00 0.00 0.00 0.00 0.00 0.00 0.00 0.00 0.00 0.00 0.00 0.00 0.00 0.00 0.00 0.00 0.00 0.00 0.00 0.00 0.00 0.00 0.00 0.00 0.00 0.00
0.00 0.00 0.00 0.00 0.00 0.00 0.00 0.00 0.00 0.00 0.00 0.00 0.00 0.00 0.00 0.00 0.00 0.00 0.00 0.00 0.00 0.00 0.00 0.00 0.00 0.00 0.00 0.00 0.00 0.00 0.00 0.00 0.00
0.00 0.00 0.00 0.00 0.00 0.00 0.00 0.00 0.00 0.00 0.00 0.00 0.00 0.00 0.00 0.00 0.00 0.00 0.00 0.00 0.00 0.00 0.00 0.00 0.00 0.00 0.00 0.00 0.00 0.00 0.00 0.00 0.00
0.00 0.00 0.00 0.00 0.00 0.00 0.00 0.00 0.00 0.00 0.00 0.00 0.00 0.00 0.00 0.00 0.00 0.00 0.00 0.00 0.00 0.00 0.00 0.00 0.00 0.00 0.00 0.00 0.00 0.00 0.00 0.00 0.00
0.00 0.00 0.00 0.00 0.00 0.00 0.00 0.00 0.00 0.00 0.00 0.00 0.00 0.00 0.00 0.00 0.00 0.00 0.00 0.00 0.00 0.00 0.00 0.00 0.00 0.00 0.00 0.00 0.00 0.00 0.00 0.00 0.00
0.00 0.00 0.00 0.00 0.00 0.00 0.00 0.00 0.00 0.00 0.00 0.00 0.00 0.00 0.00 0.00 0.00 0.00 0.00 0.00 0.00 0.00 0.00 0.00 0.00 0.00 0.00 0.00 0.00 0.00 0.00 0.00 0.00
0.00 0.00 0.00 0.00 0.00 0.00 0.00 0.00 0.00 0.00 0.00 0.00 0.00 0.00 0.00 0.00 0.00 0.00 0.00 0.00 0.00 0.00 0.00 0.00 0.00 0.00 0.00 0.01 0.01 0.00 0.00 0.00 0.00
0.00 0.00 0.00 0.00 0.00 0.00 0.00 0.00 0.00 0.00 0.00 0.00 0.00 0.00 0.00 0.00 0.00 0.00 0.00 0.00 0.00 0.00 0.00 0.00 0.00 0.00 0.00 0.01 0.02 0.02 0.01 0.00 0.00
0.00 0.00 0.00 0.00 0.00 0.00 0.00 0.00 0.00 0.00 0.00 0.00 0.00 0.00 0.00 0.00 0.00 0.00 0.00 0.00 0.00 0.00 0.00 0.00 0.00 0.00 0.00 0.01 0.04 0.06 0.06 0.04 0.01
0.00 0.00 0.00 0.00 0.00 0.00 0.00 0.00 0.00 0.00 0.01 0.00 0.00 0.00 0.00 0.00 0.00 0.00 0.00 0.00 0.00 0.00 0.00 0.00 0.00 0.00 0.00 0.00 0.00 0.00 0.02 0.06 0.07
0.00 0.00 0.00 0.00 0.00 0.00 0.00 0.00 0.00 0.00 0.00 0.01 0.00 0.00 0.00 0.00 0.00 0.00 0.00 0.00 0.00 0.00 0.00 0.00 0.00 0.00 0.00 0.00 0.00 0.00 0.00 0.01 0.04
0.00 0.00 0.00 0.00 0.00 0.00 0.01 0.01 0.00 0.00 0.00 0.00 0.01 0.00 0.00 0.00 0.00 0.00 0.00 0.00 0.00 0.00 0.00 0.00 0.00 0.00 0.00 0.00 0.00 0.00 0.00 0.00 0.00
0.00 0.00 0.00 0.00 0.00 0.00 0.00 0.00 0.01 0.01 0.00 0.01 0.01 0.01 0.00 0.00 0.00 0.00 0.00 0.00 0.00 0.00 0.00 0.00 0.00 0.00 0.00 0.00 0.00 0.00 0.00 0.00 0.00
0.00 0.00 0.00 0.00 0.00 0.00 0.00 0.00 0.00 0.01 0.00 0.00 0.00 0.00 0.01 0.01 0.01 0.00 0.00 0.00 0.00 0.00 0.00 0.00 0.00 0.00 0.00 0.00 0.00 0.00 0.00 0.00 0.00
0.00 0.00 0.00 0.00 0.00 0.00 0.00 0.00 0.00 0.00 0.00 0.00 0.00 0.00 0.01 0.02 0.02 0.01 0.00 0.00 0.00 0.00 0.00 0.00 0.00 0.00 0.00 0.00 0.00 0.00 0.00 0.00 0.00
MSLP
1019.41 1019.61 1019.79 1019.85 1020.03 1020.14 1020.22 1020.40 1020.51 1020.58 1020.66 1020.63 1020.54 1020.58 1020.62 1020.77 1020.40 1020.61 1020.83 1021.02 1020.96 1020.94 1020.93 1020.95 1020.90 1020.84 1020.65 1020.68 1020.67 1020.72 1020.78 1020.82 1020.88
1019.69 1019.87 1020.03 1020.07 1020.20 1020.34 1020.46 1020.70 1020.81 1020.91 1020.92 1020.88 1020.85 1020.86 1020.73 1020.68 1020.71 1021.01 1021.17 1021.23 1021.23 1021.21 1021.18 1021.17 1021.18 1021.17 1021.13 1020.95 1021.01 1021.02 1021.04 1021.10 1021.15
1019.86 1020.02 1020.22 1020.29 1020.33 1020.56 1020.73 1020.91 1021.08 1021.15 1021.15 1021.13 1021.00 1020.90 1020.87 1020.68 1020.65 1021.07 1021.34 1021.42 1021.42 1021.41 1021.43 1021.40 1021.37 1021.32 1021.37 1021.35 1021.33 1021.30 1021.28 1021.32 1021.35
1019.91 1020.14 1020.31 1020.46 1020.60 1020.74 1021.03 1021.10 1021.28 1021.34 1021.38 1021.38 1021.30 1021.07 1020.92 1021.05 1020.80 1021.18 1021.43 1021.53 1021.53 1021.57 1021.55 1021.55 1021.56 1021.58 1021.56 1021.61 1021.60 1021.55 1021.51 1021.51 1021.53
1019.99 1020.24 1020.41 1020.62 1020.78 1020.93 1021.15 1021.29 1021.42 1021.41 1021.51 1021.46 1021.43 1021.29 1021.09 1021.17 1020.81 1021.20 1021.42 1021.60 1021.66 1021.74 1021.75 1021.75 1021.75 1021.73 1021.75 1021.80 1021.82 1021.75 1021.71 1021.71 1021.71
1019.96 1020.31 1020.55 1020.74 1020.90 1021.09 1021.21 1021.31 1021.47 1021.47 1021.50 1021.43 1021.36 1021.28 1021.20 1021.08 1020.82 1021.26 1021.36 1021.58 1021.67 1021.80 1021.86 1021.89 1021.88 1021.91 1021.91 1021.89 1021.92 1021.93 1021.83 1021.85 1021.90
1020.08 1020.43 1020.58 1020.83 1020.98 1021.14 1021.22 1021.27 1021.34 1021.36 1021.34 1021.40 1021.29 1021.19 1021.13 1020.75 1020.80 1021.17 1021.26 1021.49 1021.61 1021.68 1021.84 1021.91 1021.88 1021.89 1021.93 1021.96 1021.98 1022.04 1022.03 1022.06 1022.10
1020.03 1020.42 1020.57 1020.76 1020.90 1021.03 1021.09 1021.13 1021.10 1021.05 1021.02 1021.13 1021.09 1020.99 1020.74 1020.83 1020.78 1020.96 1021.09 1021.27 1021.44 1021.48 1021.54 1021.72 1021.79 1021.82 1021.86 1021.93 1022.00 1022.08 1022.12 1022.16 1022.18
1019.69 1019.97 1020.09 1020.25 1020.45 1020.40 1020.68 1020.87 1020.75 1020.56 1020.53 1020.68 1020.76 1020.69 1020.70 1020.75 1020.69 1020.86 1020.92 1021.03 1021.14 1021.25 1021.29 1021.34 1021.49 1021.63 1021.75 1021.84 1021.89 1021.98 1022.07 1022.16 1022.21
1019.37 1019.48 1019.67 1019.79 1019.90 1019.99 1020.17 1020.24 1020.26 1020.28 1020.29 1020.37 1020.41 1020.50 1020.52 1020.52 1020.51 1020.60 1020.71 1020.91 1020.94 1021.03 1021.05 1021.05 1021.04 1021.21 1021.41 1021.58 1021.69 1021.81 1021.95 1022.02 1022.04
1019.18 1019.34 1019.49 1019.66 1019.71 1019.89 1020.02 1020.11 1020.12 1020.19 1020.17 1020.22 1020.19 1020.26 1020.23 1020.21 1020.19 1020.25 1020.55 1020.69 1020.75 1020.79 1020.86 1020.84 1020.80 1020.81 1020.87 1021.07 1021.23 1021.34 1021.41 1021.64 1021.71
1019.09 1019.30 1019.45 1019.47 1019.53 1019.63 1019.75 1019.79 1019.87 1020.10 1020.04 1020.25 1020.05 1019.99 1019.93 1019.97 1019.92 1019.91 1020.01 1020.24 1020.38 1020.46 1020.49 1020.60 1020.65 1020.67 1020.63 1020.50 1020.67 1020.79 1020.98 1021.15 1021.31
1019.05 1019.30 1019.34 1019.27 1019.35 1019.49 1019.71 1019.86 1020.01 1020.08 1020.10 1020.08 1019.97 1019.80 1019.70 1019.63 1019.59 1019.57 1019.58 1019.66 1019.80 1020.00 1020.08 1020.23 1020.33 1020.43 1020.42 1020.33 1020.18 1020.37 1020.43 1020.66 1021.00
1018.84 1019.11 1019.19 1019.11 1019.28 1019.40 1019.66 1019.83 1019.90 1020.02 1019.96 1019.93 1019.76 1019.73 1019.73 1019.53 1019.29 1019.35 1019.29 1019.26 1019.19 1019.31 1019.40 1019.76 1020.05 1020.28 1020.29 1020.15 1020.00 1019.94 1019.92 1020.27 1020.53
1018.49 1018.72 1018.88 1018.95 1019.06 1019.39 1019.53 1019.65 1019.68 1019.77 1019.91 1019.90 1019.88 1019.79 1019.67 1019.34 1019.25 1019.13 1018.98 1018.99 1018.90 1018.99 1019.41 1019.73 1020.01 1020.12 1020.08 1020.02 1019.96 1019.88 1019.74 1019.82 1020.10
1018.15 1018.54 1018.59 1018.76 1019.10 1019.30 1019.51 1019.62 1019.78 1019.92 1019.89 1020.20 1020.09 1019.83 1019.50 1019.29 1019.05 1018.78 1018.86 1018.97 1019.11 1019.21 1019.48 1019.73 1019.99 1020.17 1020.14 1020.19 1020.18 1020.24 1020.25 1019.92 1019.71
1018.38 1018.66 1019.02 1019.13 1019.36 1019.48 1019.70 1019.91 1020.03 1019.99 1019.90 1020.20 1020.23 1019.91 1019.62 1019.08 1018.79 1018.76 1019.06 1019.15 1019.19 1019.47 1019.75 1019.95 1020.16 1020.38 1020.55 1020.72 1020.96 1020.81 1020.66 1020.43 1019.96
1018.97 1019.12 1019.29 1019.41 1019.51 1019.72 1019.84 1019.96 1020.18 1020.16 1019.93 1019.84 1020.15 1020.11 1020.00 1019.69 1019.33 1019.18 1019.27 1019.46 1019.67 1019.63 1019.78 1019.87 1020.44 1020.91 1020.97 1021.31 1021.48 1021.32 1021.01 1020.63 1020.21
1019.42 1019.49 1019.51 1019.67 1019.63 1019.79 1019.84 1019.89 1020.03 1020.12 1020.14 1020.07 1019.96 1020.02 1020.06 1020.06 1020.12 1019.66 1019.56 1019.59 1019.83 1019.87 1020.14 1020.46 1020.90 1021.21 1021.55 1021.85 1022.02 1021.82 1021.52 1021.13 1020.46
1019.73 1019.85 1019.90 1019.86 1019.94 1019.95 1020.04 1020.04 1020.13 1020.14 1020.19 1020.12 1020.11 1020.09 1020.02 1019.85 1020.14 1020.22 1019.97 1019.85 1019.77 1019.98 1020.26 1020.63 1021.19 1021.56 1021.97 1022.27 1022.26 1022.10 1021.76 1021.26 1020.68
Thickness
5727 5726 5724 5723 5721 5720 5719 5717 5715 5713 5712 5712 5712 5711 5710 5707 5708 5706 5703 5701 5698 5697 5696 5693 5691 5690 5689 5687 5685 5682 5679 5676 5673
5724 5723 5721 5720 5719 5717 5716 5713 5711 5710 5709 5709 5709 5709 5709 5707 5706 5702 5700 5698 5695 5693 5692 5690 5688 5685 5684 5683 5680 5678 5675 5672 5669
5722 5721 5718 5718 5717 5715 5713 5711 5709 5707 5707 5707 5707 5707 5706 5706 5705 5702 5698 5694 5692 5690 5688 5686 5685 5683 5680 5678 5676 5673 5671 5668 5665
5720 5718 5716 5715 5714 5713 5709 5709 5706 5706 5704 5703 5703 5705 5704 5702 5701 5698 5695 5691 5689 5687 5685 5683 5681 5679 5677 5674 5671 5669 5666 5663 5660
5718 5716 5714 5712 5711 5710 5708 5706 5704 5705 5703 5702 5702 5702 5701 5700 5699 5696 5692 5688 5685 5682 5681 5679 5677 5675 5672 5669 5666 5664 5662 5659 5656
5717 5714 5712 5710 5708 5707 5705 5705 5703 5703 5702 5702 5700 5700 5699 5698 5697 5693 5690 5685 5682 5679 5677 5674 5672 5670 5668 5665 5662 5659 5657 5654 5650
5714 5712 5710 5707 5706 5704 5703 5703 5702 5702 5702 5700 5699 5700 5698 5698 5695 5691 5687 5683 5679 5676 5674 5671 5669 5666 5663 5661 5658 5654 5651 5647 5644
5713 5711 5710 5707 5706 5704 5703 5703 5703 5703 5701 5699 5698 5697 5697 5695 5693 5689 5686 5682 5678 5674 5671 5667 5665 5662 5659 5656 5652 5648 5645 5641 5638
5713 5711 5711 5710 5707 5707 5705 5702 5703 5702 5701 5699 5697 5696 5694 5692 5690 5687 5684 5680 5677 5673 5669 5665 5662 5659 5655 5651 5647 5644 5640 5636 5633
5712 5712 5711 5709 5708 5707 5705 5704 5703 5702 5701 5699 5697 5694 5692 5690 5687 5685 5681 5677 5674 5670 5667 5663 5661 5656 5651 5647 5643 5639 5635 5631 5628
5709 5709 5708 5707 5706 5704 5703 5702 5701 5699 5698 5697 5695 5692 5691 5688 5686 5682 5679 5674 5670 5667 5663 5660 5658 5654 5650 5645 5641 5637 5633 5629 5625
5706 5705 5704 5704 5703 5702 5701 5700 5698 5696 5694 5693 5692 5690 5689 5686 5684 5681 5677 5673 5668 5664 5660 5656 5653 5649 5646 5644 5640 5636 5631 5625 5622
5701 5700 5700 5700 5700 5698 5696 5695 5693 5691 5690 5688 5689 5687 5686 5684 5681 5678 5675 5671 5668 5663 5658 5653 5648 5645 5641 5639 5636 5633 5629 5624 5618
5698 5696 5696 5696 5695 5694 5692 5691 5689 5686 5686 5685 5686 5683 5681 5679 5678 5674 5671 5667 5664 5662 5658 5651 5644 5639 5636 5634 5632 5628 5626 5620 5616
5696 5694 5692 5692 5691 5689 5688 5687 5686 5684 5680 5679 5677 5675 5675 5674 5671 5669 5665 5662 5659 5655 5650 5645 5639 5634 5631 5629 5626 5624 5622 5617 5611
5692 5689 5688 5686 5685 5684 5682 5681 5678 5675 5674 5669 5668 5668 5668 5666 5667 5665 5661 5654 5649 5646 5642 5636 5631 5626 5624 5620 5617 5614 5610 5610 5609
5683 5681 5679 5678 5676 5676 5673 5670 5668 5667 5667 5659 5657 5656 5658 5661 5661 5658 5651 5647 5642 5637 5632 5625 5621 5615 5611 5609 5605 5602 5600 5599 5601
5672 5671 5669 5669 5668 5666 5664 5662 5659 5657 5659 5657 5649 5642 5640 5644 5647 5646 5642 5637 5631 5628 5623 5618 5611 5603 5602 5598 5594 5592 5592 5591 5592
5660 5660 5660 5659 5658 5658 5656 5655 5652 5650 5646 5645 5644 5642 5639 5630 5627 5632 5630 5627 5622 5618 5611 5605 5599 5595 5589 5585 5581 5580 5580 5578 5581
5650 5649 5649 5649 5648 5647 5646 5644 5642 5640 5638 5637 5635 5632 5630 5629 5621 5617 5616 5617 5615 5609 5602 5596 5589 5585 5580 5575 5573 5570 5571 5571 5572